カタログに戻る

FENGYUN 1C DEB

LostPO
NORAD 35230·DEBRIS·🇨🇳 China

打ち上げ May 10, 1999 から Taiyuan Satellite Launch Center

Loading…

次のパス (今後24時間)

TLE

古いSource: Space-Track

元期: May 17, 2025, 21:30 UTC

1 35230U 99025DQN 25137.89611848  .00058123  00000-0  64809-2 0  9999
2 35230  98.4143 299.7539 0022570  52.4327 307.8933 14.86589396864030

AllMySatでFENGYUN 1C DEBをリアルタイム追跡

Download on the App Store